www.pogodaiklimat.ru

Погода и климат >> Архив погоды >> Индонезия >> Танджунгредеп


ПОГОДА в Танджунгредепе

  • Прогноз погоды в Танджунгредепе
  • Монитор погоды в Танджунгредепе

АРХИВ ПОГОДЫ в Танджунгредепе

Время (UTC), дата Ветер
(напр.,м/с)
 
Видим.   Явления Облачность Т
(С)
Тd
(С)
f
(%)
Тe
(С)
Тes
(С)
Комфортность P
(гПа)
Po
(гПа)
Тmin
(С)
Tmax
(С)
R
(мм)
R24
(мм)
S
(см)
03 20.06 З 6 10 км 5/3 500 м
[Cu hum As op Ci fib]
+31.6 +23.6 63 +43 +47 опасность
перегрева
1010.9 1009.4
06 20.06 ЮЗ 5 10 км 6/4 540 м
[Cu hum As op Ci fib]
+34.2 +23.5 54 +45 +49 опасность
перегрева
1008.2 1006.4
09 20.06 ЮВ 4 7000 м слаб. дождь 9/5 400 м
[Cu hum As op Ci fib]
+28.6 +24.9 80 +41 +41 опасность
перегрева
1008.9 1006.2 0.0
12 20.06 штиль 0 8000 м {дождь} 9/6 400 м
[Cu hum As op Ci fib]
+25.8 +24.8 94 +37 +37 очень
душно
1009.9 1008.3 +34.2 14
15 20.06 штиль 0 8000 м 9/5 400 м
[Cu hum As op Ci fib]
+24.3 +23.7 96 +33 +33 очень
душно
1011.2 1009.6
18 20.06 штиль 0 6000 м 9/5 400 м
[Cu hum As op Ci fib]
+24.1 +23.5 96 +32 +32 очень
душно
1010.0 1008.4
21 20.06 ЮЗ 2 4000 м 6/4 400 м
[Cu hum As op Ci fib]
+23.4 +22.8 96 +33 +33 очень
душно
1009.9 1008.3
00 21.06 СЗ 1 7000 м {дождь} 6/4 450 м
[Cu hum As op Ci fib]
+26.3 +24.2 88 +37 +39 очень
душно
1011.0 1009.4 +23.2 14
03 21.06 ЮЗ 6 10 км 5/3 450 м
[Cu hum As op Ci fib]
+31.2 +24.0 66 +43 +47 опасность
перегрева
1009.6 1008.0
06 21.06 З 2 10 км 6/4 540 м
[Cu hum As op Ci fib]
+33.4 +23.3 56 +44 +52 опасность
перегрева
1006.9 1005.4
09 21.06 ЮВ 3 10 км 6/4 540 м
[Cu hum As op Ci fib]
+32.6 +25.1 65 +47 +47 опасность
перегрева
1006.5 1004.9
12 21.06 СВ 2 10 км 6/4 500 м
[Cu hum As op Ci fib]
+27.0 +25.8 93 +40 +40 очень
душно
1008.6 1007.0 +34.6
15 21.06 Ю 1 9000 м 5/3 450 м
[Cu hum As op Ci fib]
+25.6 +25.2 98 +37 +37 очень
душно
1010.0 1008.4
21 21.06 штиль 0 8000 м 6/4 500 м
[Cu hum As op Ci fib]
+24.0 +23.7 98 +33 +33 очень
душно
1009.0 1007.4
00 22.06 В 1 10 км 3/1 600 м
[Cu hum Ci fib]
+27.6 +25.3 87 +40 +44 очень
душно
1009.7 1008.1 +23.8
03 22.06 ЮВ 2 10 км 6/4 400 м
[Cu hum As op Ci fib]
+32.8 +25.0 64 +47 +55 опасность
перегрева
1008.7 1007.1
06 22.06 штиль 0 10 км 6/4 400 м
[Cu Sc As trans Ci fib]
+34.7 +23.6 53 +46 +56 опасность
перегрева
1006.0 1004.4
09 22.06 ЮЗ 2 10 км 6/4 420 м
[Cu hum As trans Ci fib]
+35.3 +23.5 51 +46 +47 опасность
перегрева
1005.5 1003.9
12 22.06 штиль 0 6000 м {дождь} 8/4 450 м
[Cu hum As op Ci fib]
+25.8 +24.5 93 +36 +36 очень
душно
1008.1 1006.5 +35.4 0.0
15 22.06 штиль 0 8000 м 9/4 450 м
[Cu hum As op Ci fib]
+25.4 +24.4 94 +35 +35 очень
душно
1010.6 1009.0
18 22.06 ЮЗ 2 8000 м 9/4 450 м
[Cu hum As op Ci fib]
+24.5 +23.9 96 +33 +33 очень
душно
1009.6 1008.0
21 22.06 штиль 0 8000 м 8/4 500 м
[Cu hum As op Ci fib]
+24.4 +24.0 98 +34 +34 очень
душно
1009.7 1008.1
00 23.06 З 1 8000 м 6/4 450 м
[Cu hum As op Ci fib]
+26.5 +24.1 87 +37 +39 очень
душно
1010.8 1009.2 +23.8 0.0
03 23.06 ЮЗ 4 10 км 6/4 450 м
[Cu hum As op Ci fib]
+31.4 +24.7 68 +45 +51 опасность
перегрева
1010.2 1008.6
06 23.06 ЮЗ 4 10 км 6/4 450 м
[Cu hum As op Ci fib]
+34.3 +23.9 55 +46 +52 опасность
перегрева
1007.6 1006.0
09 23.06 штиль 0 8000 м 8/5 400 м
[Cu hum As op Ci fib]
+29.4 +26.5 84 +45 +46 опасность
перегрева
1007.0 1005.4 0.0
12 23.06 штиль 0 8000 м 8/5 400 м
[Cu Sc As op Ci fib]
+26.0 +24.7 93 +37 +37 очень
душно
1009.2 1007.6 +34.3 0.0
15 23.06 Ю 2 8000 м 8/4 450 м
[Cu hum As op Ci fib]
+25.0 +24.6 98 +35 +35 очень
душно
1010.9 1009.3
18 23.06 ЮЗ 1 8000 м 6/4 500 м
[Cu hum As op Ci fib]
+24.8 +24.5 98 +35 +35 очень
душно
1010.4 1008.8
21 23.06 ЮЗ 1 4000 м дымка 9/5 360 м
[Cu hum As op Ci fib]
+24.3 +23.7 96 +33 +33 очень
душно
1011.2 1009.6
00 24.06 СЗ 2 8000 м 6/3 450 м
[Cu hum As trans Ci fib]
+26.7 +24.3 87 +37 +40 очень
душно
1013.1 1011.5 +24.0 0.0
03 24.06 С 1 10 км 6/3 450 м
[Cu hum As trans Ci fib]
+32.4 +25.1 65 +46 +57 опасность
перегрева
1012.3 1010.7
06 24.06 штиль 0 10 км 6/4 450 м
[Cu hum As op Ci fib]
+33.8 +24.6 59 +47 +57 опасность
перегрева
1009.8 1008.2
09 24.06 ЮВ 5 10 км 9/4 400 м
[Cu hum As op Ci fib]
+29.2 +24.8 77 +42 +42 опасность
перегрева
1009.7 1008.1
12 24.06 В 2 10 км 9/3 500 м
[Cu hum As op Ci fib]
+24.6 +23.3 92 +33 +33 очень
душно
1011.8 1010.2 +34.1
15 24.06 З 1 10 км 8/3 500 м
[Cu hum As op Ci fib]
+23.5 +22.9 96 +31 +31 очень
душно
1012.8 1011.2
18 24.06 штиль 0 9000 м 5/3 500 м
[Cu hum As op Ci fib]
+22.9 +22.5 98 +31 +31 очень
душно
1011.8 1010.3
21 24.06 штиль 0 8000 м 6/4 500 м
[Cu hum As op Ci fib]
+22.7 +22.6 99 +31 +31 очень
душно
1012.4 1010.8
00 25.06 штиль 0 5000 м 5/4 330 м
[Cu Sc As trans Ci fib]
+26.1 +24.6 91 +37 +40 очень
душно
1013.3 1011.7 +22.7
03 25.06 С 2 10 км 6/4 450 м
[Cu hum As op Ci fib]
+31.3 +25.1 70 +45 +55 опасность
перегрева
1012.8 1011.2
06 25.06 Ю 2 10 км 8/4 450 м
[Cu hum As op Ci fib]
+32.9 +24.0 60 +45 +51 опасность
перегрева
1010.4 1008.8
09 25.06 В 2 10 км 6/4 450 м
[Cu hum As op Ci fib]
+33.8 +24.0 57 +46 +47 опасность
перегрева
1009.3 1007.7
12 25.06 В 2 10 км 5/4 600 м
[Cu hum As op Ci fib]
+28.2 +24.9 82 +40 +40 очень
душно
1011.4 1009.6 +34.2
15 25.06 ЮВ 2 10 км 6/4 500 м
[Cu hum As op Ci fib]
+26.8 +24.4 87 +38 +38 очень
душно
1012.7 1011.1
18 25.06 штиль 0 9000 м 6/4 500 м
[Cu hum As op Ci fib]
+24.0 +23.6 98 +33 +33 очень
душно
1011.8 1010.2
21 25.06 штиль 0 8000 м 6/4 450 м
[Cu hum As op Ci fib]
+23.3 +23.0 98 +33 +33 очень
душно
1011.6 1010.0
00 26.06 З 2 4000 м 5/3 420 м
[Sc As trans Ci fib]
+27.2 +24.9 87 +39 +41 очень
душно
1012.5 1010.9 +23.1
03 26.06 ЮЗ 4 9000 м 8/5 420 м
[Cu hum As trans Ci fib]
+31.9 +24.4 65 +45 +49 опасность
перегрева
1011.9 1010.3
06 26.06 штиль 0 10 км 8/5 540 м
[Cu hum As op Ci fib]
+34.5 +22.5 50 +44 +51 опасность
перегрева
1008.8 1007.2
09 26.06 В 2 10 км 8/4 540 м
[Cu hum As op Ci fib]
+33.8 +24.0 57 +46 +46 опасность
перегрева
1007.7 1006.2
12 26.06 В 2 10 км 6/4 600 м
[Cu hum As op Ci fib]
+28.2 +24.9 82 +40 +40 очень
душно
1009.8 1008.2 +35.0
15 26.06 С 1 8000 м 6/4 500 м
[Cu hum As trans Ci fib]
+25.7 +24.6 94 +36 +36 очень
душно
1011.3 1009.7
18 26.06 ЮЗ 1 5000 м 6/4 480 м
[Cu hum As trans Ci fib]
+24.4 +23.8 96 +33 +33 очень
душно
1010.5 1008.9
21 26.06 штиль 0 3000 м дымка 6/4 480 м
[Cu hum As trans Ci fib]
+23.8 +23.4 98 +32 +32 очень
душно
1010.5 1008.9

 

Местоположение метеостанции Танджунгредеп (Индонезия): широта 2.12 долгота 117.45 высота над уровнем моря 26 м.

В архиве по умолчанию представлена погода в Танджунгредепе за последнюю неделю. Архивные данные за месяц целиком и за предыдущие месяцы, начиная с января 2011 года, Вы можете получить, выбрав интересующий диапазон дат из раскрывающегося списка и нажав кнопку "Ввод!".


*Определитесь, кто Вы:
робот инопланетянин человек

Внимание! Время в таблицах - всемирное. Для получения местного времени необходимо прибавить поправку, которая равна 8 ч.

Смотрите также архив погоды в соседних городах и на ближайших метеорологических станциях:

Погода в Танджунгселоре (Индонезия) (82 км)
Погода в Таракане (Индонезия) (135 км)
Погода в Тавау (Малайзия) (244 км)
Погода в Лонгбаване (Индонезия) (266 км)
Погода в Самаринде (Индонезия) (307 км)
Погода в Баликпапане (Индонезия) (382 км)
Погода в Толи-Толи (Индонезия) (392 км)
Погода в Палу (Индонезия) (402 км)
Погода в Бруней аэропорту (Бруней) (419 км)
Погода в Сандакане (Малайзия) (426 км)

Пояснения к столбцам:

Ветер - указаны скорость ветра в м/с - средняя за 10 мин, порывы в срок и между сроками (в фигурных скобках) и направление, откуда дует ветер: С - северный, СВ - северо-восточный, В - восточный, ЮВ - юго-восточный, Ю - южный, ЮЗ - юго-западный, З - западный, СЗ - северо-западный.
Видимость - горизонтальная дальность видимости в метрах или километрах. При видимости от 1 до 10 км при отсутствии осадков обычно наблюдается дымка, при ухудшении видимости до 1 км и менее - туман. В сухую погоду видимость может ухудшаться дымом, пылью или мглою.
Явления - указаны атмосферные явления, наблюдавшиеся в срок или в последний час перед сроком; фигурными скобками обозначены явления, наблюдавшиеся между сроками (за 1-3 часа до срока); квадратными скобками обозначены град или гололедные отложения с указанием их диаметра в мм.
Облачность - указаны через наклонную черту общая и нижняя облачность в баллах и высота нижней границы облаков в метрах; квадратными скобками обозначены формы облаков: Ci - перистые, Cs - перисто-слоистые, Cc - перисто-кучевые, Ac - высококучевые, As - высокослоистые, Sc - слоисто-кучевые, Ns - слоисто-дождевые, Cu - кучевые, Cb - кучево-дождевые. Подробнее классификацию облаков см. в Атласе облаков (PDF).
T - Температура воздуха - температура, измеренная на высоте 2 м над землей.
Td - Температура точки росы - температура, при понижении до которой содержащийся в воздухе водяной пар достигнет насыщения.
f - Относительная влажность воздуха - влажноcть воздуха, измеренная на высоте 2 м над землей.
Te - Эффективная температура - температура, которую ощущает одетый по сезону человек в тени. Характеристика душности погоды. При расчете учитывается влияние влажности воздуха и скорости ветра на теплоощущения человека.
Tes - Эффективная температура на солнце - температура, которую ощущает человек, с поправкой на солнечный нагрев. Характеристика знойности погоды. Зависит от высоты солнца над горизонтом, облачности и скорости ветра. Ночью, в пасмурную погоду, а также при ветре 12 м/с и более поправка равна нулю.
P - Атмосферное давление - приведенное к уровню моря атмосферное давление.
Po - Атмосферное давление - измеренное на уровне метеостанции атмосферное давление.
Tmin - Минимальная температура - минимум температуры воздуха на высоте 2 м над землей.
Tmax - Максимальная температура - максимум температуры воздуха на высоте 2 м над землей.
R - Количество осадков - Количество выпавших осадков за период времени, мм. При наведении курсора мыши на число - период времени, за который выпало указанное количество осадков.
R24 - Количество осадков - Количество выпавших осадков за 24 часа, мм.
S - Снежный покров - Высота снежного покрова, см. При наведении курсора мыши на число - состояние снежного покрова и степень покрытия местности в баллах.